[[{"header":{"parameterUnit":"m.s-1","parameterCategory":1,"la1":30.2991,"la2":30.254,"lo1":-89.0895,"lo2":-89.0444,"dy":0.0017,"dx":0.0017,"nx":28,"ny":28,"refTime":"2024-11-30T09:00:00:Z","depth":0,"parameterNumber":2,"parameterNumberName":"U-component_of_WINDS"},"data":[0,0,0,0,0,0,0,0,0,0,0,0,0,0,0,0,0,0,0,0,0,0,0,0,0,0,0,0,0,0,0,0,0,0,0,0,0,0,0,0,0,0,0,0,0,0,0,0,0,0,0,0,0,0,0,0,0,0,-3.9331,-3.9332,0,-3.9417,-3.9418,-3.9419,-3.9269,-3.9264,-3.9259,-3.9254,-3.9344,-3.9351,-3.9358,0,0,0,0,0,0,0,0,0,0,0,0,0,-3.9038,-3.9044,-3.9331,-3.9332,-3.9333,-3.9417,-3.9418,-3.9419,-3.927,-3.9264,-3.9257,-3.9252,-3.9342,-3.935,-3.9359,0,0,0,0,0,0,0,0,0,0,0,0,0,-3.9149,-3.9046,-3.933,-3.9268,-3.9264,-3.9416,-3.9418,-3.9419,-3.9271,-3.9263,-3.9256,-3.9249,-3.9339,-3.935,-3.936,-3.9578,0,0,-3.9393,-3.9397,0,0,0,0,0,0,0,0,-3.9143,-3.916,-3.9276,-3.9273,-3.9268,-3.9324,-3.9347,-3.9473,-3.9273,-3.9268,-3.9254,-3.9245,-3.9344,-3.9354,-3.9387,-3.9582,-3.9586,-3.9394,-3.94,-3.9405,-3.9408,0,0,0,0,0,0,0,-3.9135,-3.9155,-3.9365,-3.9278,-3.9273,-3.9237,-3.9244,-3.9371,-3.9348,-3.9268,-3.9257,-3.927,-3.934,-3.9377,-3.9388,-3.9587,-3.9393,-3.9403,-3.941,-3.9414,-3.9966,-3.9974,0,0,0,0,0,0,-3.9135,-3.915,-3.9362,-3.9367,-3.9185,-3.9248,-3.9256,-3.9314,-3.9346,-3.9343,-3.9276,-3.9262,-3.9362,-3.9375,-3.939,-3.9648,-3.9405,-3.9415,-3.9421,-3.9958,-3.9968,-3.9977,0,0,0,0,0,0,-3.9129,-3.9155,-3.9358,-3.9256,-3.9279,-3.9261,-3.9327,-3.932,-3.9356,-3.9352,-3.9347,-3.9318,-3.9357,-3.9375,-3.9532,-3.9649,-3.942,-3.9429,-3.9948,-3.9961,-3.9973,-4.0166,0,0,0,0,0,0,-3.9122,-3.9154,-3.9237,-3.9259,-3.9285,-3.95,-3.9334,-3.9327,-3.9375,-3.9357,-3.939,-3.9388,-3.9352,-3.9517,-3.9543,-3.966,-3.9438,-3.9938,-3.9954,-3.9969,-4.015,-4.0184,-4.0213,0,0,0,0,0,-3.9112,-3.9288,-3.9242,-3.9268,-3.9388,-3.9507,-3.9522,-3.9477,-3.9385,-3.9468,-3.9465,-3.9387,-3.9632,-3.9535,-3.9562,-3.9684,-3.993,-3.9949,-3.9967,-4.0135,-4.0177,-4.0213,0,0,0,0,0,0,-3.9282,-3.929,-3.9239,-3.9427,-3.9468,-3.9481,-3.9585,-3.9522,-3.959,-3.9571,-3.9513,-3.9521,-3.9691,-3.9702,-3.9594,-3.9897,-3.9766,-3.9791,-3.9884,-3.9924,-3.9955,-3.995,-3.9446,0,0,0,0,0,-3.9341,-3.9437,-3.9439,-3.9605,-3.9628,-3.9603,-3.9653,-3.9615,-3.9654,-3.9671,-3.9679,-3.9721,-3.9807,-3.9865,-3.9944,-4.0149,-4.0155,-4.0247,-4.0279,-4.0305,-4.0328,-4.0438,-4.048,-4.0038,-4.0038,-4.0038,0,0,-3.9465,-3.9481,-3.9546,-3.964,-3.9666,-3.9767,-3.9618,-3.9731,-3.9806,-3.9688,-3.9837,-3.9845,-3.9887,-4.007,-4.015,-4.0085,-4.0451,-4.0329,-4.0349,-4.0359,-4.0462,-4.0504,-4.0541,-4.0051,-4.0048,-4.0046,0,0,-3.9743,-3.9765,-3.9906,-3.9935,-3.9977,-3.9959,-3.9993,-4.0016,-4.0017,-4.0165,-4.0079,-4.0166,-4.0316,-4.035,-4.0387,-4.0676,-4.0608,-4.0703,-4.0871,-4.098,-4.1014,-4.1045,-4.115,-4.1188,-4.0726,-4.0726,-4.0727,0,-3.9893,-4.0041,-3.9987,-4.0106,-4.0151,-4.0047,-4.019,-4.0221,-4.0287,-4.032,-4.0245,-4.043,-4.0451,-4.0641,-4.0712,-4.0744,-4.0782,-4.0701,-4.1013,-4.1044,-4.1071,-4.1171,-4.1211,-4.0738,-4.0737,-4.0735,-4.0734,0,-4.0224,-4.0328,-4.0437,-4.0503,-4.0559,-4.069,-4.0656,-4.0719,-4.0675,-4.0666,-4.0818,-4.0839,-4.0921,-4.0963,-4.0921,-4.1147,-4.1105,-4.1023,-4.089,-4.1126,-4.1219,-4.1257,-4.0755,-4.075,-4.0747,-4.0744,0,0,-4.0615,-4.0647,-4.0689,-4.0717,-4.0754,-4.0834,-4.096,-4.1039,-4.1095,-4.1143,-4.1248,-4.1376,-4.13,-4.1343,-4.1303,-4.1398,-4.1628,-4.1304,-4.1304,-4.1366,-4.188,-4.1944,-4.1989,-4.1581,-4.1588,-4.1594,-4.1877,0,-4.0893,-4.111,-4.1064,-4.1277,-4.1373,-4.1275,-4.1384,-4.142,-4.1413,-4.1494,-4.1486,-4.1579,-4.1471,-4.1496,-4.1585,-4.1582,-4.1731,-4.156,-4.168,-4.1685,-4.1676,-4.2037,-4.2105,-4.2371,-4.1913,-4.1919,-4.1923,0,-4.1247,-4.1308,-4.1532,-4.1553,-4.1591,-4.1691,-4.176,-4.1838,-4.1875,-4.1864,-4.1911,-4.1853,-4.1978,-4.1842,-4.2014,-4.1899,-4.1945,-4.1951,-4.196,-4.1972,-4.1821,-4.2061,-4.2455,-4.2496,-4.1979,-4.1975,-4.1971,0,-4.1513,-4.1651,-4.1802,-4.1829,-4.1858,-4.193,-4.1945,-4.1975,-4.2026,-4.2085,-4.2118,-4.2192,-4.2233,-4.2292,-4.2256,-4.216,-4.2436,-4.2296,-4.2431,-4.2433,-4.2497,-4.2494,-4.2906,-4.2522,-4.2521,-4.2521,-4.252,0,-4.1831,-4.1972,-4.1922,-4.2016,-4.217,-4.2116,-4.227,-4.2274,-4.2301,-4.2394,-4.2312,-4.2401,-4.2347,-4.2432,-4.2404,-4.2552,-4.2571,-4.2566,-4.2558,-4.2576,-4.2577,-4.2607,-4.2589,-4.2531,-4.2529,-4.2527,-4.2525,0,-4.2155,-4.2127,-4.2286,-4.2299,-4.2306,-4.242,-4.2431,-4.2519,-4.2505,-4.2624,-4.2648,-4.2628,-4.2723,-4.2692,-4.2795,-4.2776,-4.2965,-4.2931,-4.2953,-4.2946,-4.3084,-4.3072,-4.3533,-4.3591,-4.3167,-4.3171,-4.3174,0,-4.2361,-4.2467,-4.2492,-4.2548,-4.2569,-4.266,-4.2711,-4.266,-4.2717,-4.2767,-4.2849,-4.2936,-4.3004,-4.3161,-4.3156,-4.3234,-4.3203,-4.3359,-4.3215,-4.3229,-4.3209,-4.3204,-4.3215,-4.3389,-4.3394,-4.3398,-4.3401,0,-4.2731,-4.2711,-4.2787,-4.286,-4.2922,-4.2977,-4.3024,-4.3074,-4.3026,-4.3094,-4.319,-4.3243,-4.3347,-4.3436,-4.3506,-4.3522,-4.3456,-4.3446,-4.3482,-4.3503,-4.3512,-4.3511,-4.3035,-4.3437,-4.3433,-4.3431,-4.3429,-4.3427,-4.3004,-4.3094,-4.3125,-4.3213,-4.3242,-4.3288,-4.3371,-4.3367,-4.3446,-4.3527,-4.3492,-4.3603,-4.3637,-4.3724,-4.375,-4.3836,-4.3776,-4.3828,-4.3842,-4.3856,-4.3875,-4.3496,-4.3849,-4.3847,-4.3846,-4.3846,-4.3845,0,-4.3371,-4.3386,-4.3467,-4.3535,-4.3604,-4.3532,-4.358,-4.3643,-4.3742,-4.3779,-4.3847,-4.3958,-4.4043,-4.4044,-4.4124,-4.4193,-4.4165,-4.4216,-4.4212,-4.4217,-4.3923,-4.3885,-4.4238,-4.4238,-4.4238,-4.4238,-4.4237,-4.4237,-4.3571,-4.372,-4.3704,-4.3867,-4.388,-4.3988,-4.4022,-4.4063,-4.4092,-4.422,-4.429,-4.4289,-4.4312,-4.4392,-4.4467,-4.4465,-4.45,-4.4564,-4.4551,-4.4276,-4.4238,-4.42,-4.4165,-4.4571,-4.4571,-4.4838,-4.484,-4.4842]},{"header":{"parameterUnit":"m.s-1","parameterCategory":1,"la1":30.2991,"la2":30.254,"lo1":-89.0895,"lo2":-89.0444,"dy":0.0017,"dx":0.0017,"nx":28,"ny":28,"refTime":"2024-11-30T09:00:00:Z","depth":0,"parameterNumber":3,"parameterNumberName":"V-component_of_WINDS"},"data":[0,0,0,0,0,0,0,0,0,0,0,0,0,0,0,0,0,0,0,0,0,0,0,0,0,0,0,0,0,0,0,0,0,0,0,0,0,0,0,0,0,0,0,0,0,0,0,0,0,0,0,0,0,0,0,0,0,0,-5.1633,-5.1633,0,-5.1686,-5.1687,-5.1688,-5.1599,-5.1596,-5.1593,-5.159,-5.1642,-5.1646,-5.165,0,0,0,0,0,0,0,0,0,0,0,0,0,-5.1449,-5.1453,-5.1633,-5.1633,-5.1634,-5.1686,-5.1687,-5.1688,-5.16,-5.1596,-5.1592,-5.1589,-5.164,-5.1645,-5.165,0,0,0,0,0,0,0,0,0,0,0,0,0,-5.1518,-5.1454,-5.1632,-5.1596,-5.1594,-5.1686,-5.1687,-5.1688,-5.1601,-5.1596,-5.1591,-5.1587,-5.1639,-5.1645,-5.1651,-5.178,0,0,-5.167,-5.1673,0,0,0,0,0,0,0,0,-5.1514,-5.1525,-5.1601,-5.1599,-5.1596,-5.1632,-5.1641,-5.1719,-5.1602,-5.1598,-5.159,-5.1585,-5.1642,-5.1647,-5.1667,-5.1782,-5.1784,-5.1671,-5.1674,-5.1677,-5.1679,0,0,0,0,0,0,0,-5.151,-5.1522,-5.1654,-5.1602,-5.1599,-5.1576,-5.1581,-5.1655,-5.1644,-5.1598,-5.1592,-5.1599,-5.1639,-5.1662,-5.1668,-5.1785,-5.167,-5.1676,-5.168,-5.1682,-5.2006,-5.201,0,0,0,0,0,0,-5.151,-5.1519,-5.1652,-5.1655,-5.1543,-5.1583,-5.1588,-5.1625,-5.1643,-5.1642,-5.1603,-5.1595,-5.1653,-5.1661,-5.1669,-5.182,-5.1677,-5.1683,-5.1687,-5.2001,-5.2007,-5.2012,0,0,0,0,0,0,-5.1506,-5.1523,-5.165,-5.1585,-5.16,-5.1591,-5.1632,-5.1628,-5.165,-5.1647,-5.1644,-5.1628,-5.165,-5.1661,-5.1753,-5.182,-5.1686,-5.1691,-5.1995,-5.2003,-5.201,-5.2123,0,0,0,0,0,0,-5.1501,-5.1522,-5.1572,-5.1587,-5.1604,-5.1734,-5.1637,-5.1632,-5.1662,-5.1651,-5.167,-5.1669,-5.1647,-5.1744,-5.1759,-5.1827,-5.1696,-5.1989,-5.1999,-5.2007,-5.2113,-5.2133,-5.2151,0,0,0,0,0,-5.1495,-5.1602,-5.1575,-5.1592,-5.1666,-5.1738,-5.1747,-5.1722,-5.1667,-5.1717,-5.1715,-5.1668,-5.1811,-5.1754,-5.177,-5.1841,-5.1985,-5.1996,-5.2007,-5.2105,-5.2129,-5.215,0,0,0,0,0,0,-5.1594,-5.1603,-5.1574,-5.1689,-5.1714,-5.1723,-5.1785,-5.1749,-5.1789,-5.1777,-5.1742,-5.1747,-5.1846,-5.1853,-5.1789,-5.1965,-5.1888,-5.1903,-5.1958,-5.1981,-5.1999,-5.1995,-5.1701,0,0,0,0,0,-5.1629,-5.1688,-5.1692,-5.1793,-5.1807,-5.1794,-5.1825,-5.1803,-5.1826,-5.1836,-5.1841,-5.1865,-5.1914,-5.1948,-5.1994,-5.2114,-5.2115,-5.217,-5.2189,-5.2204,-5.2217,-5.2279,-5.2303,-5.2048,-5.2048,-5.2048,0,0,-5.1702,-5.1715,-5.1754,-5.1813,-5.183,-5.189,-5.1804,-5.1871,-5.1915,-5.1846,-5.1933,-5.1938,-5.1961,-5.2068,-5.2115,-5.2076,-5.2288,-5.2218,-5.223,-5.2235,-5.2292,-5.2316,-5.2338,-5.2055,-5.2054,-5.2053,0,0,-5.1866,-5.1882,-5.1967,-5.1986,-5.2012,-5.2003,-5.2023,-5.2038,-5.2039,-5.2126,-5.2075,-5.2125,-5.2213,-5.2231,-5.2252,-5.2422,-5.238,-5.2438,-5.2535,-5.2596,-5.2616,-5.2633,-5.2692,-5.2714,-5.2451,-5.2451,-5.2451,0,-5.1953,-5.2044,-5.2015,-5.2086,-5.2113,-5.2054,-5.2138,-5.2157,-5.2197,-5.2216,-5.2173,-5.228,-5.2292,-5.2401,-5.2442,-5.2462,-5.2482,-5.2435,-5.2615,-5.2633,-5.2649,-5.2704,-5.2727,-5.2458,-5.2457,-5.2456,-5.2456,0,-5.2148,-5.2212,-5.2277,-5.2318,-5.2352,-5.2429,-5.2411,-5.2448,-5.2423,-5.2417,-5.2506,-5.2518,-5.2565,-5.2589,-5.2565,-5.2694,-5.2669,-5.2621,-5.2543,-5.268,-5.2732,-5.2753,-5.2468,-5.2465,-5.2463,-5.2461,0,0,-5.2377,-5.24,-5.2424,-5.2441,-5.2466,-5.2513,-5.2587,-5.2633,-5.2665,-5.2694,-5.2754,-5.2829,-5.2784,-5.2808,-5.2785,-5.2839,-5.297,-5.2784,-5.2784,-5.2817,-5.3111,-5.3146,-5.3172,-5.2943,-5.2947,-5.295,-5.3109,0,-5.2538,-5.2667,-5.2643,-5.2768,-5.2825,-5.2769,-5.2833,-5.2854,-5.285,-5.2896,-5.2891,-5.2945,-5.2883,-5.2896,-5.2947,-5.2944,-5.3029,-5.2932,-5.2996,-5.2999,-5.2991,-5.3199,-5.3237,-5.3386,-5.3129,-5.3132,-5.3135,0,-5.2745,-5.2782,-5.2913,-5.2927,-5.295,-5.3008,-5.3048,-5.3093,-5.3115,-5.3108,-5.3135,-5.3101,-5.3173,-5.3094,-5.3191,-5.3126,-5.315,-5.3153,-5.3158,-5.3162,-5.3075,-5.3208,-5.3434,-5.3456,-5.3167,-5.3164,-5.3162,0,-5.2896,-5.2979,-5.3068,-5.3084,-5.3103,-5.3145,-5.3154,-5.3172,-5.3201,-5.3235,-5.3253,-5.3295,-5.3317,-5.335,-5.3328,-5.3273,-5.3427,-5.3348,-5.3422,-5.3423,-5.3457,-5.3455,-5.3689,-5.3475,-5.3475,-5.3474,-5.3474,0,-5.3079,-5.3161,-5.3136,-5.3191,-5.328,-5.325,-5.3339,-5.3341,-5.3357,-5.3409,-5.3363,-5.3413,-5.3382,-5.3428,-5.3412,-5.3493,-5.3504,-5.3499,-5.3494,-5.3503,-5.3504,-5.3518,-5.3507,-5.348,-5.3479,-5.3478,-5.3477,0,-5.3263,-5.325,-5.3343,-5.3353,-5.3357,-5.3422,-5.343,-5.3479,-5.3472,-5.3539,-5.3553,-5.3541,-5.3594,-5.3575,-5.3631,-5.362,-5.3723,-5.3705,-5.3717,-5.3711,-5.3787,-5.378,-5.4037,-5.4069,-5.3836,-5.3838,-5.384,0,-5.3381,-5.3442,-5.3459,-5.3491,-5.3504,-5.3557,-5.3586,-5.3559,-5.3591,-5.3619,-5.3665,-5.3714,-5.3751,-5.3838,-5.3833,-5.3875,-5.3857,-5.3944,-5.3862,-5.3869,-5.3856,-5.3852,-5.3858,-5.396,-5.3963,-5.3965,-5.3967,0,-5.359,-5.358,-5.3624,-5.3667,-5.3703,-5.3735,-5.3762,-5.3791,-5.3765,-5.3803,-5.3856,-5.3885,-5.3943,-5.3991,-5.4028,-5.4036,-5.3997,-5.3993,-5.4012,-5.4021,-5.4025,-5.4023,-5.376,-5.3987,-5.3985,-5.3983,-5.3982,-5.3981,-5.3743,-5.3794,-5.3814,-5.3864,-5.3882,-5.3909,-5.3955,-5.3954,-5.3999,-5.4044,-5.4024,-5.4086,-5.4104,-5.415,-5.4163,-5.421,-5.4176,-5.4204,-5.4211,-5.4218,-5.4227,-5.4019,-5.4217,-5.4216,-5.4215,-5.4215,-5.4214,0,-5.3948,-5.3958,-5.4005,-5.4044,-5.4084,-5.4045,-5.4072,-5.4107,-5.4163,-5.4183,-5.4221,-5.4282,-5.4328,-5.4327,-5.4369,-5.4407,-5.4389,-5.4418,-5.4415,-5.4417,-5.4256,-5.4235,-5.4431,-5.4431,-5.4431,-5.4431,-5.4431,-5.4431,-5.4059,-5.4144,-5.4136,-5.4228,-5.4237,-5.4297,-5.4316,-5.434,-5.4356,-5.4426,-5.4465,-5.4464,-5.4475,-5.4518,-5.4558,-5.4556,-5.4573,-5.4609,-5.46,-5.445,-5.4428,-5.4408,-5.4387,-5.4613,-5.4614,-5.4757,-5.4758,-5.4759]}]]